Time,TemperatureF,DewpointF,PressureIn,WindDirection,WindDirectionDegrees,WindSpeedMPH,WindSpeedGustMPH,Humidity,HourlyPrecipIn,Conditions,Clouds,dailyrainin,SoftwareType,DateUTC
2013-02-19 00:00:00,46.6,15.8,29.97,West,270,2.7,4.7,29,0.00,,,0.00,WUHU216TE923,2013-02-19 05:00:00,
2013-02-19 00:01:00,46.6,15.8,29.97,West,270,2.7,4.7,29,0.00,,,0.00,WUHU216TE923,2013-02-19 05:01:00,
2013-02-19 00:06:00,46.6,15.8,29.96,South,180,3.2,3.8,29,0.00,,,0.00,WUHU216TE923,2013-02-19 05:06:00,
2013-02-19 00:11:00,46.6,15.8,29.96,South,180,3.2,3.8,29,0.00,,,0.00,WUHU216TE923,2013-02-19 05:11:00,
2013-02-19 00:16:00,46.4,15.6,29.96,SE,135,3.6,3.8,29,0.00,,,0.00,WUHU216TE923,2013-02-19 05:16:00,
2013-02-19 00:21:00,46.4,15.6,29.96,SE,135,3.6,3.8,29,0.00,,,0.00,WUHU216TE923,2013-02-19 05:21:00,
2013-02-19 00:26:00,46.4,14.8,29.93,ESE,113,2.9,3.8,28,0.00,,,0.00,WUHU216TE923,2013-02-19 05:26:00,
2013-02-19 00:31:00,46.4,14.8,29.93,ESE,113,2.9,3.8,28,0.00,,,0.00,WUHU216TE923,2013-02-19 05:31:00,
2013-02-19 00:36:00,46.2,14.7,29.93,SSE,158,3.9,4.4,28,0.00,,,0.00,WUHU216TE923,2013-02-19 05:36:00,
2013-02-19 00:41:00,46.2,14.7,29.93,SSE,158,3.9,4.4,28,0.00,,,0.00,WUHU216TE923,2013-02-19 05:41:00,
2013-02-19 00:46:00,46.2,13.8,29.91,SW,225,3.6,4.3,27,0.00,,,0.00,WUHU216TE923,2013-02-19 05:46:00,
2013-02-19 00:51:00,46.2,13.8,29.91,SW,225,3.6,4.3,27,0.00,,,0.00,WUHU216TE923,2013-02-19 05:51:00,
2013-02-19 00:56:00,46.0,13.7,29.91,SE,135,2.2,4.0,27,0.00,,,0.00,WUHU216TE923,2013-02-19 05:56:00,
2013-02-19 01:01:00,46.0,13.7,29.91,SE,135,2.2,4.0,27,0.00,,,0.00,WUHU216TE923,2013-02-19 06:01:00,
2013-02-19 01:06:00,46.0,13.7,29.89,South,180,3.2,7.4,27,0.00,,,0.00,WUHU216TE923,2013-02-19 06:06:00,
2013-02-19 01:11:00,46.0,13.7,29.89,South,180,3.2,7.4,27,0.00,,,0.00,WUHU216TE923,2013-02-19 06:11:00,
2013-02-19 01:16:00,46.0,13.7,29.89,SSW,203,2.1,3.3,27,0.00,,,0.00,WUHU216TE923,2013-02-19 06:16:00,
2013-02-19 01:21:00,46.0,13.7,29.89,SSW,203,2.1,3.3,27,0.00,,,0.00,WUHU216TE923,2013-02-19 06:21:00,
2013-02-19 01:26:00,46.2,13.8,29.89,South,180,2.6,5.2,27,0.00,,,0.00,WUHU216TE923,2013-02-19 06:26:00,
2013-02-19 01:31:00,46.2,13.8,29.89,South,180,2.6,5.2,27,0.00,,,0.00,WUHU216TE923,2013-02-19 06:31:00,
2013-02-19 01:36:00,46.8,16.0,29.89,South,180,3.5,3.5,29,0.00,,,0.00,WUHU216TE923,2013-02-19 06:36:00,
2013-02-19 01:41:00,46.8,16.0,29.89,South,180,3.5,3.5,29,0.00,,,0.00,WUHU216TE923,2013-02-19 06:41:00,
2013-02-19 01:47:00,46.9,16.8,29.88,SE,135,2.4,5.6,30,0.00,,,0.00,WUHU216TE923,2013-02-19 06:47:00,
2013-02-19 01:52:00,46.9,16.8,29.88,SE,135,2.4,5.6,30,0.00,,,0.00,WUHU216TE923,2013-02-19 06:52:00,
2013-02-19 01:56:00,47.1,18.5,29.88,SW,225,2.1,2.5,32,0.00,,,0.00,WUHU216TE923,2013-02-19 06:56:00,
2013-02-19 02:01:00,47.1,18.5,29.88,SW,225,2.1,2.5,32,0.00,,,0.00,WUHU216TE923,2013-02-19 07:01:00,
2013-02-19 02:07:00,46.8,21.0,29.87,SSE,158,2.5,3.6,36,0.00,,,0.00,WUHU216TE923,2013-02-19 07:07:00,
2013-02-19 02:11:00,46.8,21.0,29.87,SSE,158,2.5,3.6,36,0.00,,,0.00,WUHU216TE923,2013-02-19 07:11:00,
2013-02-19 02:16:00,46.4,23.2,29.87,SSW,203,2.2,2.8,40,0.00,,,0.00,WUHU216TE923,2013-02-19 07:16:00,
2013-02-19 02:22:00,46.4,23.2,29.87,SSW,203,2.2,2.8,40,0.00,,,0.00,WUHU216TE923,2013-02-19 07:22:00,
2013-02-19 02:27:00,46.0,24.0,29.90,NNW,338,3.2,5.7,42,0.00,,,0.00,WUHU216TE923,2013-02-19 07:27:00,
2013-02-19 02:32:00,46.0,24.0,29.90,NNW,338,3.2,5.7,42,0.00,,,0.00,WUHU216TE923,2013-02-19 07:32:00,
2013-02-19 02:37:00,45.3,25.1,29.90,ESE,113,3.1,3.8,45,0.00,,,0.00,WUHU216TE923,2013-02-19 07:37:00,
2013-02-19 02:42:00,45.1,26.5,29.90,SSE,158,3.9,6.7,48,0.00,,,0.00,WUHU216TE923,2013-02-19 07:42:00,
2013-02-19 02:47:00,44.8,26.7,29.90,SSE,158,3.6,6.7,49,0.00,,,0.00,WUHU216TE923,2013-02-19 07:47:00,
2013-02-19 02:52:00,44.8,26.7,29.90,SSE,158,3.3,3.8,49,0.00,,,0.00,WUHU216TE923,2013-02-19 07:52:00,
2013-02-19 02:57:00,44.2,26.7,29.90,SSW,203,2.9,3.8,50,0.00,,,0.00,WUHU216TE923,2013-02-19 07:57:00,
2013-02-19 03:02:00,44.1,26.6,29.90,South,180,2.4,3.0,50,0.00,,,0.00,WUHU216TE923,2013-02-19 08:02:00,
2013-02-19 03:07:00,43.7,26.2,29.90,SE,135,1.9,2.7,50,0.00,,,0.00,WUHU216TE923,2013-02-19 08:07:00,
2013-02-19 03:12:00,43.7,26.2,29.90,SE,135,1.9,1.9,50,0.00,,,0.00,WUHU216TE923,2013-02-19 08:12:00,
2013-02-19 03:17:00,43.2,26.3,29.90,SE,135,2.0,2.0,51,0.00,,,0.00,WUHU216TE923,2013-02-19 08:17:00,
2013-02-19 03:22:00,43.2,26.3,29.90,SE,135,2.0,2.0,51,0.00,,,0.00,WUHU216TE923,2013-02-19 08:22:00,
2013-02-19 03:27:00,42.6,27.1,29.90,WSW,248,1.0,3.0,54,0.00,,,0.00,WUHU216TE923,2013-02-19 08:27:00,
2013-02-19 03:32:00,42.6,27.1,29.90,WSW,248,1.0,3.0,54,0.00,,,0.00,WUHU216TE923,2013-02-19 08:32:00,
2013-02-19 03:37:00,42.8,27.8,29.90,WNW,293,0.8,1.4,55,0.00,,,0.00,WUHU216TE923,2013-02-19 08:37:00,
2013-02-19 03:42:00,42.8,27.8,29.90,WNW,293,0.8,1.4,55,0.00,,,0.00,WUHU216TE923,2013-02-19 08:42:00,
2013-02-19 03:47:00,42.6,28.9,29.90,WSW,248,2.0,5.9,58,0.00,,,0.00,WUHU216TE923,2013-02-19 08:47:00,
2013-02-19 03:52:00,42.6,28.9,29.90,WSW,248,2.0,5.9,58,0.00,,,0.00,WUHU216TE923,2013-02-19 08:52:00,
2013-02-19 03:57:00,42.1,30.5,29.90,SSE,158,4.5,5.7,63,0.03,,,0.03,WUHU216TE923,2013-02-19 08:57:00,
2013-02-19 04:02:00,42.1,30.5,29.90,South,180,3.9,5.7,63,0.06,,,0.06,WUHU216TE923,2013-02-19 09:02:00,
2013-02-19 04:07:00,42.1,30.1,29.88,WNW,293,2.0,3.9,62,0.06,,,0.06,WUHU216TE923,2013-02-19 09:07:00,
2013-02-19 04:12:00,42.1,31.3,29.88,South,180,1.9,2.7,65,0.06,,,0.06,WUHU216TE923,2013-02-19 09:12:00,
2013-02-19 04:17:00,41.9,31.1,29.88,NW,315,2.0,2.7,65,0.08,,,0.08,WUHU216TE923,2013-02-19 09:17:00,
2013-02-19 04:22:00,41.7,30.5,29.88,North,0,1.7,2.0,64,0.08,,,0.08,WUHU216TE923,2013-02-19 09:22:00,
2013-02-19 04:27:00,41.5,30.3,29.93,West,270,0.9,1.7,64,0.08,,,0.08,WUHU216TE923,2013-02-19 09:27:00,
2013-02-19 04:32:00,41.4,30.6,29.93,West,270,1.0,2.1,65,0.11,,,0.11,WUHU216TE923,2013-02-19 09:32:00,
2013-02-19 04:37:00,41.0,31.0,29.93,SW,225,2.1,3.3,67,0.11,,,0.11,WUHU216TE923,2013-02-19 09:37:00,
2013-02-19 04:42:00,40.8,30.8,29.93,NNW,338,2.2,4.0,67,0.14,,,0.14,WUHU216TE923,2013-02-19 09:42:00,
2013-02-19 04:47:00,40.3,30.3,29.95,SSE,158,2.0,4.0,67,0.11,,,0.14,WUHU216TE923,2013-02-19 09:47:00,
2013-02-19 04:52:00,39.7,30.1,29.95,SSW,203,2.1,3.9,68,0.11,,,0.14,WUHU216TE923,2013-02-19 09:52:00,
2013-02-19 04:57:00,39.6,29.6,29.95,West,270,1.1,3.9,67,0.11,,,0.17,WUHU216TE923,2013-02-19 09:57:00,
2013-02-19 05:02:00,39.2,29.2,29.95,WSW,248,1.0,1.3,67,0.11,,,0.17,WUHU216TE923,2013-02-19 10:02:00,
2013-02-19 05:07:00,38.7,28.8,29.94,NW,315,0.9,1.7,67,0.13,,,0.19,WUHU216TE923,2013-02-19 10:07:00,
2013-02-19 05:12:00,38.7,28.8,29.94,SW,225,0.9,1.7,67,0.14,,,0.22,WUHU216TE923,2013-02-19 10:12:00,
2013-02-19 05:17:00,37.8,27.9,29.94,South,180,0.8,1.8,67,0.14,,,0.22,WUHU216TE923,2013-02-19 10:17:00,
2013-02-19 05:22:00,37.4,27.9,29.94,SE,135,1.1,1.8,68,0.14,,,0.22,WUHU216TE923,2013-02-19 10:22:00,
2013-02-19 05:27:00,37.0,27.8,29.94,South,180,1.3,1.3,69,0.11,,,0.22,WUHU216TE923,2013-02-19 10:27:00,
2013-02-19 05:32:00,37.0,27.8,29.94,South,180,0.7,1.9,69,0.11,,,0.25,WUHU216TE923,2013-02-19 10:32:00,
2013-02-19 05:37:00,36.9,27.8,29.94,SE,135,0.5,1.9,69,0.11,,,0.25,WUHU216TE923,2013-02-19 10:37:00,
2013-02-19 05:42:00,37.2,28.0,29.94,SE,135,0.5,1.0,69,0.11,,,0.25,WUHU216TE923,2013-02-19 10:42:00,
2013-02-19 05:47:00,37.2,28.0,29.91,SW,225,0.3,3.0,69,0.08,,,0.25,WUHU216TE923,2013-02-19 10:47:00,
2013-02-19 05:52:00,37.0,27.8,29.91,SSE,158,0.6,3.0,69,0.08,,,0.25,WUHU216TE923,2013-02-19 10:52:00,
2013-02-19 05:57:00,36.9,28.1,29.91,SE,135,0.9,1.5,70,0.09,,,0.28,WUHU216TE923,2013-02-19 10:57:00,
2013-02-19 06:02:00,36.9,28.4,29.91,SE,135,1.1,2.1,71,0.09,,,0.28,WUHU216TE923,2013-02-19 11:02:00,
2013-02-19 06:07:00,36.9,28.4,29.89,South,180,1.2,2.1,71,0.06,,,0.28,WUHU216TE923,2013-02-19 11:07:00,
2013-02-19 06:12:00,36.9,28.4,29.89,South,180,1.2,1.2,71,0.06,,,0.28,WUHU216TE923,2013-02-19 11:12:00,
2013-02-19 06:17:00,36.7,28.9,29.89,ESE,113,1.7,3.3,73,0.06,,,0.28,WUHU216TE923,2013-02-19 11:17:00,
2013-02-19 06:22:00,36.9,29.1,29.89,NE,45,1.5,3.3,73,0.06,,,0.28,WUHU216TE923,2013-02-19 11:22:00,
2013-02-19 06:27:00,36.9,29.1,29.89,SSW,203,0.8,1.5,73,0.03,,,0.28,WUHU216TE923,2013-02-19 11:27:00,
2013-02-19 06:32:00,36.9,29.1,29.89,SSE,158,0.3,0.8,73,0.05,,,0.30,WUHU216TE923,2013-02-19 11:32:00,
2013-02-19 06:37:00,37.0,29.2,29.89,SSW,203,0.1,0.3,73,0.05,,,0.30,WUHU216TE923,2013-02-19 11:37:00,
2013-02-19 06:42:00,37.0,29.2,29.89,South,180,0.0,0.1,73,0.05,,,0.30,WUHU216TE923,2013-02-19 11:42:00,
2013-02-19 06:47:00,37.0,29.2,29.88,South,180,0.1,1.3,73,0.05,,,0.30,WUHU216TE923,2013-02-19 11:47:00,
2013-02-19 06:52:00,36.9,29.1,29.88,SSE,158,0.3,1.3,73,0.02,,,0.30,WUHU216TE923,2013-02-19 11:52:00,
2013-02-19 06:58:00,36.9,29.1,29.88,South,180,0.4,0.4,73,0.02,,,0.30,WUHU216TE923,2013-02-19 11:58:00,
2013-02-19 07:03:00,37.0,29.2,29.88,NW,315,0.2,0.4,73,0.02,,,0.30,WUHU216TE923,2013-02-19 12:03:00,
2013-02-19 07:08:00,37.2,29.4,29.87,NW,315,0.0,0.2,73,0.02,,,0.30,WUHU216TE923,2013-02-19 12:08:00,
2013-02-19 07:13:00,37.2,29.4,29.87,NW,315,0.0,0.0,73,0.02,,,0.30,WUHU216TE923,2013-02-19 12:13:00,
2013-02-19 07:18:00,37.2,29.7,29.87,SW,225,0.5,1.2,74,0.02,,,0.30,WUHU216TE923,2013-02-19 12:18:00,
2013-02-19 07:23:00,37.2,30.1,29.87,South,180,1.2,2.6,75,0.02,,,0.30,WUHU216TE923,2013-02-19 12:23:00,
2013-02-19 07:28:00,37.2,30.4,29.85,SSE,158,2.1,2.6,76,0.00,,,0.30,WUHU216TE923,2013-02-19 12:28:00,
2013-02-19 07:33:00,37.0,30.5,29.85,WNW,293,2.0,2.5,77,0.00,,,0.30,WUHU216TE923,2013-02-19 12:33:00,
2013-02-19 07:38:00,37.4,30.6,29.85,North,0,1.1,2.0,76,0.00,,,0.30,WUHU216TE923,2013-02-19 12:38:00,
2013-02-19 07:43:00,37.6,30.4,29.85,NE,45,0.6,1.7,75,0.00,,,0.30,WUHU216TE923,2013-02-19 12:43:00,
2013-02-19 07:48:00,37.8,30.6,29.86,ESE,113,0.2,0.6,75,0.00,,,0.30,WUHU216TE923,2013-02-19 12:48:00,
2013-02-19 07:53:00,37.8,30.6,29.86,NW,315,0.0,0.2,75,0.00,,,0.30,WUHU216TE923,2013-02-19 12:53:00,
2013-02-19 07:58:00,37.9,30.4,29.86,SSE,158,0.0,0.0,74,0.00,,,0.30,WUHU216TE923,2013-02-19 12:58:00,
2013-02-19 08:03:00,37.9,30.4,29.86,SSE,158,0.0,0.0,74,0.00,,,0.30,WUHU216TE923,2013-02-19 13:03:00,
2013-02-19 08:08:00,37.9,30.4,29.87,SSE,158,0.0,0.0,74,0.00,,,0.30,WUHU216TE923,2013-02-19 13:08:00,
2013-02-19 08:13:00,38.1,30.6,29.87,SSE,158,0.1,1.0,74,0.00,,,0.30,WUHU216TE923,2013-02-19 13:13:00,
2013-02-19 08:18:00,38.1,30.6,29.87,South,180,0.1,1.0,74,0.00,,,0.30,WUHU216TE923,2013-02-19 13:18:00,
2013-02-19 08:23:00,38.3,30.8,29.87,SE,135,0.1,1.0,74,0.00,,,0.30,WUHU216TE923,2013-02-19 13:23:00,
2013-02-19 08:28:00,38.7,31.5,29.88,South,180,0.0,0.1,75,0.00,,,0.30,WUHU216TE923,2013-02-19 13:28:00,
2013-02-19 08:33:00,38.7,31.5,29.88,South,180,0.4,1.5,75,0.00,,,0.30,WUHU216TE923,2013-02-19 13:33:00,
2013-02-19 08:38:00,39.2,32.0,29.88,SW,225,0.4,1.5,75,0.00,,,0.30,WUHU216TE923,2013-02-19 13:38:00,
2013-02-19 08:43:00,39.2,32.0,29.88,South,180,0.2,0.4,75,0.00,,,0.30,WUHU216TE923,2013-02-19 13:43:00,
2013-02-19 08:48:00,39.4,32.5,29.88,WSW,248,0.4,1.5,76,0.00,,,0.30,WUHU216TE923,2013-02-19 13:48:00,
2013-02-19 08:53:00,39.6,32.7,29.88,SW,225,0.4,1.5,76,0.00,,,0.30,WUHU216TE923,2013-02-19 13:53:00,
2013-02-19 08:58:00,39.9,33.0,29.88,South,180,0.7,1.5,76,0.00,,,0.30,WUHU216TE923,2013-02-19 13:58:00,
2013-02-19 09:03:00,40.1,33.5,29.88,South,180,1.1,1.5,77,0.00,,,0.30,WUHU216TE923,2013-02-19 14:03:00,
2013-02-19 09:08:00,40.3,33.7,29.88,WSW,248,1.0,1.5,77,0.00,,,0.30,WUHU216TE923,2013-02-19 14:08:00,
2013-02-19 09:13:00,40.5,33.9,29.88,SW,225,1.0,2.0,77,0.00,,,0.30,WUHU216TE923,2013-02-19 14:13:00,
2013-02-19 09:18:00,40.8,34.5,29.88,SW,225,1.1,2.0,78,0.00,,,0.30,WUHU216TE923,2013-02-19 14:18:00,
2013-02-19 09:23:00,41.0,34.7,29.88,South,180,1.3,1.9,78,0.00,,,0.30,WUHU216TE923,2013-02-19 14:23:00,
2013-02-19 09:28:00,41.7,35.7,29.88,SSW,203,1.7,2.1,79,0.00,,,0.30,WUHU216TE923,2013-02-19 14:28:00,
2013-02-19 09:33:00,42.1,36.1,29.88,SSW,203,1.6,2.1,79,0.00,,,0.30,WUHU216TE923,2013-02-19 14:33:00,
2013-02-19 09:38:00,42.3,36.3,29.88,SW,225,1.3,1.8,79,0.00,,,0.30,WUHU216TE923,2013-02-19 14:38:00,
2013-02-19 09:43:00,42.6,36.6,29.88,WSW,248,1.3,1.4,79,0.00,,,0.30,WUHU216TE923,2013-02-19 14:43:00,
2013-02-19 09:48:00,42.8,36.8,29.90,SSW,203,2.2,2.9,79,0.00,,,0.30,WUHU216TE923,2013-02-19 14:48:00,
2013-02-19 09:53:00,42.8,36.8,29.90,SW,225,2.2,2.9,79,0.00,,,0.30,WUHU216TE923,2013-02-19 14:53:00,
2013-02-19 09:58:00,43.2,37.2,29.90,WSW,248,1.7,2.8,79,0.00,,,0.30,WUHU216TE923,2013-02-19 14:58:00,
2013-02-19 10:03:00,43.3,37.3,29.90,WNW,293,1.5,2.7,79,0.00,,,0.30,WUHU216TE923,2013-02-19 15:03:00,
2013-02-19 10:08:00,43.0,36.6,29.90,NW,315,1.9,2.7,78,0.00,,,0.30,WUHU216TE923,2013-02-19 15:08:00,
2013-02-19 10:13:00,43.0,36.6,29.90,SSW,203,2.5,4.4,78,0.00,,,0.30,WUHU216TE923,2013-02-19 15:13:00,
2013-02-19 10:18:00,43.0,36.6,29.90,SW,225,2.8,5.0,78,0.00,,,0.30,WUHU216TE923,2013-02-19 15:18:00,
2013-02-19 10:23:00,43.0,36.6,29.90,South,180,3.0,5.0,78,0.00,,,0.30,WUHU216TE923,2013-02-19 15:23:00,
2013-02-19 10:28:00,43.2,36.8,29.90,West,270,3.1,3.8,78,0.00,,,0.30,WUHU216TE923,2013-02-19 15:28:00,
2013-02-19 10:33:00,42.8,36.1,29.90,West,270,3.6,6.5,77,0.00,,,0.30,WUHU216TE923,2013-02-19 15:33:00,
2013-02-19 10:38:00,43.2,36.5,29.90,SW,225,3.2,6.5,77,0.00,,,0.30,WUHU216TE923,2013-02-19 15:38:00,
2013-02-19 10:43:00,43.2,36.5,29.90,SW,225,2.8,4.9,77,0.00,,,0.30,WUHU216TE923,2013-02-19 15:43:00,
2013-02-19 10:48:00,43.5,36.8,29.90,WSW,248,2.6,4.9,77,0.00,,,0.30,WUHU216TE923,2013-02-19 15:48:00,
2013-02-19 10:53:00,44.2,37.5,29.90,South,180,2.9,6.4,77,0.00,,,0.30,WUHU216TE923,2013-02-19 15:53:00,
2013-02-19 10:58:00,45.0,37.9,29.90,NW,315,3.3,6.4,76,0.00,,,0.30,WUHU216TE923,2013-02-19 15:58:00,
2013-02-19 11:03:00,45.5,37.8,29.90,WSW,248,3.5,3.5,74,0.00,,,0.30,WUHU216TE923,2013-02-19 16:03:00,
2013-02-19 11:08:00,46.6,38.5,29.90,WSW,248,3.5,5.8,73,0.00,,,0.30,WUHU216TE923,2013-02-19 16:08:00,
2013-02-19 11:13:00,46.8,37.6,29.90,South,180,3.7,5.8,70,0.00,,,0.30,WUHU216TE923,2013-02-19 16:13:00,
2013-02-19 11:18:00,46.0,36.9,29.90,SW,225,3.8,4.2,70,0.00,,,0.30,WUHU216TE923,2013-02-19 16:18:00,
2013-02-19 11:24:00,45.3,36.2,29.90,SW,225,3.9,5.8,70,0.00,,,0.30,WUHU216TE923,2013-02-19 16:24:00,
2013-02-19 11:29:00,45.3,36.2,29.90,SW,225,3.4,5.8,70,0.00,,,0.30,WUHU216TE923,2013-02-19 16:29:00,
2013-02-19 11:34:00,46.6,37.1,29.90,WSW,248,3.5,4.7,69,0.00,,,0.30,WUHU216TE923,2013-02-19 16:34:00,
2013-02-19 11:39:00,46.4,36.5,29.90,SW,225,3.6,5.2,68,0.00,,,0.30,WUHU216TE923,2013-02-19 16:39:00,
2013-02-19 11:44:00,47.1,37.2,29.90,SW,225,3.6,5.2,68,0.00,,,0.30,WUHU216TE923,2013-02-19 16:44:00,
2013-02-19 11:49:00,48.4,37.3,29.90,South,180,3.5,4.8,65,0.00,,,0.30,WUHU216TE923,2013-02-19 16:49:00,
2013-02-19 11:54:00,48.2,37.1,29.90,South,180,3.8,9.5,65,0.00,,,0.30,WUHU216TE923,2013-02-19 16:54:00,
2013-02-19 11:59:00,46.9,35.8,29.90,SSW,203,4.2,9.5,65,0.00,,,0.30,WUHU216TE923,2013-02-19 16:59:00,
2013-02-19 12:04:00,46.9,35.8,29.90,South,180,4.3,5.0,65,0.00,,,0.30,WUHU216TE923,2013-02-19 17:04:00,
2013-02-19 12:09:00,46.8,36.1,29.89,SSW,203,4.4,5.3,66,0.00,,,0.30,WUHU216TE923,2013-02-19 17:09:00,
2013-02-19 12:14:00,46.8,36.1,29.89,SSW,203,4.4,5.3,66,0.00,,,0.30,WUHU216TE923,2013-02-19 17:14:00,
2013-02-19 12:19:00,47.5,37.2,29.89,SW,225,3.8,5.3,67,0.00,,,0.30,WUHU216TE923,2013-02-19 17:19:00,
2013-02-19 12:24:00,47.5,36.8,29.89,South,180,3.4,5.3,66,0.00,,,0.30,WUHU216TE923,2013-02-19 17:24:00,
2013-02-19 12:30:00,47.8,37.1,29.90,West,270,3.5,3.5,66,0.00,,,0.30,WUHU216TE923,2013-02-19 17:30:00,
2013-02-19 12:37:00,49.8,37.0,29.90,South,180,3.3,6.4,61,0.00,,,0.30,WUHU216TE923,2013-02-19 17:37:00,
2013-02-19 12:42:00,50.0,36.7,29.90,WSW,248,3.7,6.1,60,0.00,,,0.30,WUHU216TE923,2013-02-19 17:42:00,
2013-02-19 12:49:00,50.5,36.3,29.88,South,180,3.8,6.1,58,0.00,,,0.30,WUHU216TE923,2013-02-19 17:49:00,
2013-02-19 12:54:00,50.7,36.5,29.88,West,270,3.7,5.4,58,0.00,,,0.30,WUHU216TE923,2013-02-19 17:54:00,
2013-02-19 12:59:00,52.0,37.8,29.88,West,270,3.0,3.7,58,0.00,,,0.30,WUHU216TE923,2013-02-19 17:59:00,
2013-02-19 13:04:00,52.2,37.5,29.88,WSW,248,2.9,4.5,57,0.00,,,0.30,WUHU216TE923,2013-02-19 18:04:00,
2013-02-19 13:09:00,52.7,37.5,29.87,South,180,3.0,4.5,56,0.00,,,0.30,WUHU216TE923,2013-02-19 18:09:00,
2013-02-19 13:14:00,52.0,36.4,29.87,South,180,3.2,3.9,55,0.00,,,0.30,WUHU216TE923,2013-02-19 18:14:00,
2013-02-19 13:19:00,52.9,36.3,29.87,SW,225,2.8,3.2,53,0.00,,,0.30,WUHU216TE923,2013-02-19 18:19:00,
2013-02-19 13:24:00,53.1,36.4,29.87,NW,315,2.6,3.3,53,0.00,,,0.30,WUHU216TE923,2013-02-19 18:24:00,
2013-02-19 13:29:00,53.6,35.9,29.87,WSW,248,2.8,4.4,51,0.00,,,0.30,WUHU216TE923,2013-02-19 18:29:00,
2013-02-19 13:34:00,53.2,35.5,29.87,West,270,2.9,4.4,51,0.00,,,0.30,WUHU216TE923,2013-02-19 18:34:00,
2013-02-19 13:39:00,53.2,35.0,29.87,WSW,248,2.9,3.8,50,0.00,,,0.30,WUHU216TE923,2013-02-19 18:39:00,
2013-02-19 13:44:00,54.7,32.5,29.87,NNE,23,2.8,3.8,43,0.00,,,0.30,WUHU216TE923,2013-02-19 18:44:00,
2013-02-19 13:49:00,56.8,31.3,29.86,NW,315,2.7,5.3,38,0.00,,,0.30,WUHU216TE923,2013-02-19 18:49:00,
2013-02-19 13:54:00,56.8,29.9,29.86,North,0,2.4,5.3,36,0.00,,,0.30,WUHU216TE923,2013-02-19 18:54:00,
2013-02-19 13:59:00,57.4,29.7,29.86,NNE,23,2.8,9.2,35,0.00,,,0.30,WUHU216TE923,2013-02-19 18:59:00,
2013-02-19 14:04:00,58.5,29.3,29.86,WSW,248,3.3,9.2,33,0.00,,,0.30,WUHU216TE923,2013-02-19 19:04:00,
2013-02-19 14:09:00,57.7,27.8,29.86,NE,45,3.3,5.1,32,0.00,,,0.30,WUHU216TE923,2013-02-19 19:09:00,
2013-02-19 14:14:00,58.1,26.6,29.86,NW,315,2.9,3.3,30,0.00,,,0.30,WUHU216TE923,2013-02-19 19:14:00,
2013-02-19 14:19:00,58.8,27.2,29.86,WNW,293,2.9,3.1,30,0.00,,,0.30,WUHU216TE923,2013-02-19 19:19:00,
2013-02-19 14:24:00,58.8,27.2,29.86,West,270,3.1,3.3,30,0.00,,,0.30,WUHU216TE923,2013-02-19 19:24:00,
2013-02-19 14:29:00,58.8,27.2,29.86,WNW,293,2.9,3.3,30,0.00,,,0.30,WUHU216TE923,2013-02-19 19:29:00,
2013-02-19 14:34:00,59.0,27.4,29.86,WSW,248,3.3,8.6,30,0.00,,,0.30,WUHU216TE923,2013-02-19 19:34:00,
2013-02-19 14:39:00,57.9,24.8,29.86,West,270,3.7,8.6,28,0.00,,,0.30,WUHU216TE923,2013-02-19 19:39:00,
2013-02-19 14:44:00,56.1,24.9,29.86,West,270,3.9,4.2,30,0.00,,,0.30,WUHU216TE923,2013-02-19 19:44:00,
2013-02-19 14:49:00,55.9,24.7,29.87,NNW,338,3.1,4.2,30,0.00,,,0.30,WUHU216TE923,2013-02-19 19:49:00,
2013-02-19 14:54:00,55.8,24.6,29.87,SW,225,2.5,3.1,30,0.00,,,0.30,WUHU216TE923,2013-02-19 19:54:00,
2013-02-19 14:59:00,55.6,24.4,29.87,West,270,2.2,3.2,30,0.00,,,0.30,WUHU216TE923,2013-02-19 19:59:00,
2013-02-19 15:04:00,55.2,24.1,29.87,NW,315,2.7,3.2,30,0.00,,,0.30,WUHU216TE923,2013-02-19 20:04:00,
2013-02-19 15:09:00,55.0,23.9,29.87,WSW,248,2.7,2.7,30,0.00,,,0.30,WUHU216TE923,2013-02-19 20:09:00,
2013-02-19 15:14:00,54.9,23.8,29.87,NE,45,2.6,4.6,30,0.00,,,0.30,WUHU216TE923,2013-02-19 20:14:00,
2013-02-19 15:19:00,54.5,23.5,29.87,WNW,293,3.0,4.6,30,0.00,,,0.30,WUHU216TE923,2013-02-19 20:19:00,
2013-02-19 15:24:00,54.1,22.3,29.87,WSW,248,2.9,3.0,29,0.00,,,0.30,WUHU216TE923,2013-02-19 20:24:00,
2013-02-19 15:29:00,54.0,23.0,29.87,NW,315,2.7,2.9,30,0.00,,,0.30,WUHU216TE923,2013-02-19 20:29:00,
2013-02-19 15:34:00,53.8,22.9,29.87,NNW,338,3.1,6.6,30,0.00,,,0.30,WUHU216TE923,2013-02-19 20:34:00,
2013-02-19 15:39:00,53.4,23.3,29.87,NW,315,3.4,6.6,31,0.00,,,0.30,WUHU216TE923,2013-02-19 20:39:00,
2013-02-19 15:44:00,53.2,22.3,29.87,West,270,3.3,4.2,30,0.00,,,0.30,WUHU216TE923,2013-02-19 20:44:00,
2013-02-19 15:49:00,53.6,22.7,29.87,NNW,338,2.9,6.1,30,0.00,,,0.30,WUHU216TE923,2013-02-19 20:49:00,
2013-02-19 15:54:00,53.6,22.7,29.87,North,0,3.4,6.1,30,0.00,,,0.30,WUHU216TE923,2013-02-19 20:54:00,
2013-02-19 15:59:00,53.1,18.9,29.87,North,0,3.7,4.1,26,0.00,,,0.30,WUHU216TE923,2013-02-19 20:59:00,
2013-02-19 16:04:00,53.1,18.0,29.87,WSW,248,3.5,6.4,25,0.00,,,0.30,WUHU216TE923,2013-02-19 21:04:00,
2013-02-19 16:06:00,52.7,17.7,29.88,WSW,248,2.9,4.1,25,0.00,,,0.30,WUHU216TE923,2013-02-19 21:06:00,
2013-02-19 16:09:00,52.7,17.7,29.88,WSW,248,2.9,6.4,25,0.00,,,0.30,WUHU216TE923,2013-02-19 21:09:00,
2013-02-19 16:14:00,52.7,17.7,29.88,WSW,248,2.9,4.1,25,0.00,,,0.30,WUHU216TE923,2013-02-19 21:14:00,
2013-02-19 16:19:00,52.0,15.2,29.88,WSW,248,3.3,5.3,23,0.00,,,0.30,WUHU216TE923,2013-02-19 21:19:00,
2013-02-19 16:24:00,51.8,15.0,29.88,NW,315,3.4,6.9,23,0.00,,,0.30,WUHU216TE923,2013-02-19 21:24:00,
2013-02-19 16:29:00,51.6,13.9,29.88,WNW,293,3.6,6.9,22,0.00,,,0.30,WUHU216TE923,2013-02-19 21:29:00,
2013-02-19 16:34:00,51.4,14.7,29.88,West,270,3.3,4.2,23,0.00,,,0.30,WUHU216TE923,2013-02-19 21:34:00,
2013-02-19 16:39:00,50.9,13.3,29.88,WNW,293,3.5,4.8,22,0.00,,,0.30,WUHU216TE923,2013-02-19 21:39:00,
2013-02-19 16:44:00,50.9,13.3,29.88,NW,315,3.6,4.8,22,0.00,,,0.30,WUHU216TE923,2013-02-19 21:44:00,
2013-02-19 16:49:00,50.7,14.1,29.88,West,270,2.6,4.0,23,0.00,,,0.30,WUHU216TE923,2013-02-19 21:49:00,
2013-02-19 16:54:00,50.7,14.1,29.88,SW,225,2.2,3.4,23,0.00,,,0.30,WUHU216TE923,2013-02-19 21:54:00,
2013-02-19 16:59:00,50.4,13.9,29.88,NW,315,2.2,3.4,23,0.00,,,0.30,WUHU216TE923,2013-02-19 21:59:00,
2013-02-19 17:04:00,50.4,13.9,29.88,South,180,2.1,3.1,23,0.00,,,0.30,WUHU216TE923,2013-02-19 22:04:00,
2013-02-19 17:09:00,50.0,12.5,29.89,WNW,293,2.5,3.1,22,0.00,,,0.30,WUHU216TE923,2013-02-19 22:09:00,
2013-02-19 17:14:00,50.0,12.5,29.89,NW,315,3.2,3.3,22,0.00,,,0.30,WUHU216TE923,2013-02-19 22:14:00,
2013-02-19 17:19:00,49.3,12.9,29.89,ENE,68,2.8,3.3,23,0.00,,,0.30,WUHU216TE923,2013-02-19 22:19:00,
2013-02-19 17:24:00,49.1,11.8,29.89,North,0,2.6,3.2,22,0.00,,,0.30,WUHU216TE923,2013-02-19 22:24:00,
2013-02-19 17:29:00,48.9,11.6,29.90,West,270,2.6,3.0,22,0.00,,,0.30,WUHU216TE923,2013-02-19 22:29:00,
2013-02-19 17:35:00,48.7,11.4,29.90,West,270,2.7,3.0,22,0.00,,,0.30,WUHU216TE923,2013-02-19 22:35:00,
2013-02-19 17:40:00,48.2,12.0,29.90,NW,315,2.1,2.7,23,0.00,,,0.30,WUHU216TE923,2013-02-19 22:40:00,
2013-02-19 17:45:00,48.2,11.0,29.90,NW,315,1.9,2.8,22,0.00,,,0.30,WUHU216TE923,2013-02-19 22:45:00,
2013-02-19 17:50:00,47.7,11.6,29.91,NNE,23,2.2,2.8,23,0.00,,,0.30,WUHU216TE923,2013-02-19 22:50:00,
2013-02-19 17:55:00,47.5,11.4,29.91,WNW,293,2.3,2.8,23,0.00,,,0.30,WUHU216TE923,2013-02-19 22:55:00,
2013-02-19 18:00:00,46.8,10.8,29.91,West,270,1.9,2.4,23,0.00,,,0.30,WUHU216TE923,2013-02-19 23:00:00,
2013-02-19 18:05:00,46.8,10.8,29.91,West,270,1.9,2.4,23,0.00,,,0.30,WUHU216TE923,2013-02-19 23:05:00,
2013-02-19 18:10:00,46.2,11.2,29.92,SE,135,1.7,2.9,24,0.00,,,0.30,WUHU216TE923,2013-02-19 23:10:00,
2013-02-19 18:15:00,46.2,11.2,29.92,SE,135,1.7,2.9,24,0.00,,,0.30,WUHU216TE923,2013-02-19 23:15:00,
2013-02-19 18:20:00,45.9,11.0,29.92,WNW,293,1.7,2.2,24,0.00,,,0.30,WUHU216TE923,2013-02-19 23:20:00,
2013-02-19 18:25:00,45.9,11.0,29.92,WNW,293,1.7,2.2,24,0.00,,,0.30,WUHU216TE923,2013-02-19 23:25:00,
2013-02-19 18:30:00,45.3,9.5,29.93,WSW,248,1.9,5.7,23,0.00,,,0.30,WUHU216TE923,2013-02-19 23:30:00,
2013-02-19 18:35:00,45.3,9.5,29.93,WSW,248,1.9,5.7,23,0.00,,,0.30,WUHU216TE923,2013-02-19 23:35:00,
2013-02-19 18:40:00,44.6,8.9,29.93,WNW,293,2.3,4.0,23,0.00,,,0.30,WUHU216TE923,2013-02-19 23:40:00,
2013-02-19 18:45:00,44.6,8.9,29.93,WNW,293,2.3,4.0,23,0.00,,,0.30,WUHU216TE923,2013-02-19 23:45:00,
2013-02-19 18:50:00,44.1,9.4,29.94,West,270,1.4,1.9,24,0.00,,,0.30,WUHU216TE923,2013-02-19 23:50:00,
2013-02-19 18:55:00,44.1,9.4,29.94,West,270,1.4,1.9,24,0.00,,,0.30,WUHU216TE923,2013-02-19 23:55:00,
2013-02-19 19:00:00,43.2,8.7,29.94,West,270,1.0,2.2,24,0.00,,,0.30,WUHU216TE923,2013-02-20 00:00:00,
2013-02-19 19:05:00,43.2,8.7,29.94,West,270,1.0,2.2,24,0.00,,,0.30,WUHU216TE923,2013-02-20 00:05:00,
2013-02-19 19:10:00,42.8,8.3,29.95,NW,315,1.0,3.3,24,0.00,,,0.30,WUHU216TE923,2013-02-20 00:10:00,
2013-02-19 19:15:00,42.8,8.3,29.95,NW,315,1.0,3.3,24,0.00,,,0.30,WUHU216TE923,2013-02-20 00:15:00,
2013-02-19 19:20:00,42.6,8.2,29.95,SW,225,0.9,0.9,24,0.00,,,0.30,WUHU216TE923,2013-02-20 00:20:00,
2013-02-19 19:25:00,42.6,8.2,29.95,SW,225,0.9,0.9,24,0.00,,,0.30,WUHU216TE923,2013-02-20 00:25:00,
2013-02-19 19:30:00,42.4,7.1,29.96,South,180,1.2,1.7,23,0.00,,,0.30,WUHU216TE923,2013-02-20 00:30:00,
2013-02-19 19:35:00,42.4,7.1,29.96,South,180,1.2,1.7,23,0.00,,,0.30,WUHU216TE923,2013-02-20 00:35:00,
2013-02-19 19:40:00,41.7,7.4,29.96,SW,225,0.5,2.4,24,0.00,,,0.30,WUHU216TE923,2013-02-20 00:40:00,
2013-02-19 19:45:00,41.7,7.4,29.96,SW,225,0.5,2.4,24,0.00,,,0.30,WUHU216TE923,2013-02-20 00:45:00,
2013-02-19 19:50:00,41.4,7.1,29.97,NW,315,1.1,2.1,24,0.00,,,0.30,WUHU216TE923,2013-02-20 00:50:00,
2013-02-19 19:55:00,41.4,7.1,29.97,NW,315,1.1,2.1,24,0.00,,,0.30,WUHU216TE923,2013-02-20 00:55:00,
2013-02-19 20:00:00,40.5,7.3,29.97,WSW,248,0.6,1.2,25,0.00,,,0.30,WUHU216TE923,2013-02-20 01:00:00,
2013-02-19 20:05:00,40.5,7.3,29.97,WSW,248,0.6,1.2,25,0.00,,,0.30,WUHU216TE923,2013-02-20 01:05:00,
2013-02-19 20:10:00,39.7,7.4,29.96,West,270,0.3,0.4,26,0.00,,,0.30,WUHU216TE923,2013-02-20 01:10:00,
2013-02-19 20:15:00,39.7,7.4,29.96,West,270,0.3,0.4,26,0.00,,,0.30,WUHU216TE923,2013-02-20 01:15:00,
2013-02-19 20:21:00,39.4,8.0,29.96,NW,315,0.1,0.2,27,0.00,,,0.30,WUHU216TE923,2013-02-20 01:21:00,
2013-02-19 20:25:00,39.4,8.0,29.96,NW,315,0.1,0.2,27,0.00,,,0.30,WUHU216TE923,2013-02-20 01:25:00,
2013-02-19 20:30:00,38.7,9.7,29.97,WSW,248,0.0,0.0,30,0.00,,,0.30,WUHU216TE923,2013-02-20 01:30:00,
2013-02-19 20:36:00,38.7,9.7,29.97,WSW,248,0.0,0.0,30,0.00,,,0.30,WUHU216TE923,2013-02-20 01:36:00,
2013-02-19 20:40:00,37.9,9.0,29.97,ESE,113,0.1,0.1,30,0.00,,,0.30,WUHU216TE923,2013-02-20 01:40:00,
2013-02-19 20:45:00,37.9,9.0,29.97,ESE,113,0.1,0.1,30,0.00,,,0.30,WUHU216TE923,2013-02-20 01:45:00,
2013-02-19 20:51:00,37.2,9.8,29.97,NNE,23,0.0,0.1,32,0.00,,,0.30,WUHU216TE923,2013-02-20 01:51:00,
2013-02-19 20:56:00,37.2,9.8,29.97,NNE,23,0.0,0.1,32,0.00,,,0.30,WUHU216TE923,2013-02-20 01:56:00,
2013-02-19 21:01:00,36.5,9.9,29.97,NW,315,0.0,0.0,33,0.00,,,0.30,WUHU216TE923,2013-02-20 02:01:00,
2013-02-19 21:06:00,36.5,9.9,29.97,NW,315,0.0,0.0,33,0.00,,,0.30,WUHU216TE923,2013-02-20 02:06:00,
2013-02-19 21:10:00,35.4,10.8,29.97,NW,315,0.0,0.0,36,0.00,,,0.30,WUHU216TE923,2013-02-20 02:10:00,
2013-02-19 21:16:00,35.4,10.8,29.97,NW,315,0.0,0.0,36,0.00,,,0.30,WUHU216TE923,2013-02-20 02:16:00,
2013-02-19 21:20:00,35.4,11.5,29.97,West,270,0.0,0.0,37,0.00,,,0.30,WUHU216TE923,2013-02-20 02:20:00,
2013-02-19 21:26:00,35.4,11.5,29.97,West,270,0.0,0.0,37,0.00,,,0.30,WUHU216TE923,2013-02-20 02:26:00,
2013-02-19 21:30:00,34.9,11.6,29.98,NNW,338,0.0,0.0,38,0.00,,,0.30,WUHU216TE923,2013-02-20 02:30:00,
2013-02-19 21:36:00,34.9,11.6,29.98,NNW,338,0.0,0.0,38,0.00,,,0.30,WUHU216TE923,2013-02-20 02:36:00,
2013-02-19 21:41:00,34.2,12.2,29.98,East,90,0.0,0.0,40,0.00,,,0.30,WUHU216TE923,2013-02-20 02:41:00,
2013-02-19 21:46:00,34.2,12.2,29.98,East,90,0.0,0.0,40,0.00,,,0.30,WUHU216TE923,2013-02-20 02:46:00,
2013-02-19 21:51:00,34.0,12.6,29.99,NW,315,0.0,0.0,41,0.00,,,0.30,WUHU216TE923,2013-02-20 02:51:00,
2013-02-19 21:56:00,34.0,12.6,29.99,NW,315,0.0,0.0,41,0.00,,,0.30,WUHU216TE923,2013-02-20 02:56:00,
2013-02-19 22:01:00,33.4,13.1,29.99,NW,315,0.1,0.1,43,0.00,,,0.30,WUHU216TE923,2013-02-20 03:01:00,
2013-02-19 22:06:00,33.4,13.1,29.99,NW,315,0.1,0.1,43,0.00,,,0.30,WUHU216TE923,2013-02-20 03:06:00,
2013-02-19 22:11:00,33.3,13.0,30.00,SSW,203,0.2,1.3,43,0.00,,,0.30,WUHU216TE923,2013-02-20 03:11:00,
2013-02-19 22:16:00,33.3,13.0,30.00,SSW,203,0.2,1.3,43,0.00,,,0.30,WUHU216TE923,2013-02-20 03:16:00,
2013-02-19 22:21:00,32.9,13.2,30.00,West,270,0.4,1.1,44,0.00,,,0.30,WUHU216TE923,2013-02-20 03:21:00,
2013-02-19 22:26:00,32.9,13.2,30.00,West,270,0.4,1.1,44,0.00,,,0.30,WUHU216TE923,2013-02-20 03:26:00,
2013-02-19 22:31:00,32.7,13.0,29.98,West,270,0.1,1.4,44,0.00,,,0.30,WUHU216TE923,2013-02-20 03:31:00,
2013-02-19 22:36:00,32.7,13.0,29.98,West,270,0.1,1.4,44,0.00,,,0.30,WUHU216TE923,2013-02-20 03:36:00,
2013-02-19 22:41:00,32.5,13.4,29.98,SSW,203,0.0,0.1,45,0.00,,,0.30,WUHU216TE923,2013-02-20 03:41:00,
2013-02-19 22:46:00,32.5,13.4,29.98,SSW,203,0.0,0.1,45,0.00,,,0.30,WUHU216TE923,2013-02-20 03:46:00,
2013-02-19 22:51:00,32.0,13.4,30.01,NW,315,0.0,0.0,46,0.00,,,0.30,WUHU216TE923,2013-02-20 03:51:00,
2013-02-19 22:56:00,32.0,13.4,30.01,NW,315,0.0,0.0,46,0.00,,,0.30,WUHU216TE923,2013-02-20 03:56:00,
2013-02-19 23:01:00,31.6,13.1,30.01,SE,135,0.0,0.0,46,0.00,,,0.30,WUHU216TE923,2013-02-20 04:01:00,
2013-02-19 23:06:00,31.6,13.1,30.01,SE,135,0.0,0.0,46,0.00,,,0.30,WUHU216TE923,2013-02-20 04:06:00,
2013-02-19 23:11:00,31.8,13.2,30.02,East,90,0.0,0.0,46,0.00,,,0.30,WUHU216TE923,2013-02-20 04:11:00,
2013-02-19 23:16:00,31.8,13.2,30.02,East,90,0.0,0.0,46,0.00,,,0.30,WUHU216TE923,2013-02-20 04:16:00,
2013-02-19 23:21:00,32.7,13.6,30.02,NW,315,0.4,0.4,45,0.00,,,0.30,WUHU216TE923,2013-02-20 04:21:00,
2013-02-19 23:26:00,32.7,13.6,30.02,NW,315,0.4,0.4,45,0.00,,,0.30,WUHU216TE923,2013-02-20 04:26:00,
2013-02-19 23:31:00,32.5,13.4,30.02,WSW,248,0.1,0.2,45,0.00,,,0.30,WUHU216TE923,2013-02-20 04:31:00,
2013-02-19 23:36:00,32.5,13.4,30.02,WSW,248,0.1,0.2,45,0.00,,,0.30,WUHU216TE923,2013-02-20 04:36:00,
2013-02-19 23:41:00,32.5,13.4,30.02,West,270,0.7,0.7,45,0.00,,,0.30,WUHU216TE923,2013-02-20 04:41:00,
2013-02-19 23:46:00,32.5,13.4,30.02,West,270,0.7,0.7,45,0.00,,,0.30,WUHU216TE923,2013-02-20 04:46:00,
2013-02-19 23:51:00,32.5,13.4,30.03,West,270,0.1,1.6,45,0.00,,,0.30,WUHU216TE923,2013-02-20 04:51:00,
2013-02-19 23:56:00,32.5,13.4,30.03,West,270,0.1,1.6,45,0.00,,,0.30,WUHU216TE923,2013-02-20 04:56:00,